29-07-2023, 00:00:09,    204,    0.7,   13.7,   0.00,   0.00, 1003.7,    0.6, -999.0
29-07-2023, 00:00:18,    202,    1.1,   13.7,   0.00,   0.00, 1003.8,    0.5, -999.0
29-07-2023, 00:00:29,    201,    0.9,   13.8,   0.00,   0.00, 1003.8,    0.3, -999.0
29-07-2023, 00:00:39,    200,    1.0,   13.8,   0.00,   0.00, 1003.7,    0.4, -999.0
29-07-2023, 00:00:48,    205,    0.6,   13.8,   0.00,   0.00, 1003.7,    0.4, -999.0
29-07-2023, 00:00:58,    206,    0.5,   13.8,   0.00,   0.00, 1003.7,    0.3, -999.0
29-07-2023, 00:01:09,    207,    0.2,   13.7,   0.00,   0.00, 1003.7,    0.3, -999.0
29-07-2023, 00:01:18,    223,    0.6,   13.7,   0.00,   0.00, 1003.7,    0.5, -999.0
29-07-2023, 00:01:28,    234,    0.9,   13.6,   0.00,   0.00, 1003.7,    0.5, -999.0
29-07-2023, 00:01:38,    232,    0.0,   13.7,   0.00,   0.00, 1003.7,    0.1, -999.0
29-07-2023, 00:01:49,    192,    1.1,   13.8,   0.00,   0.00, 1003.7,    0.4, -999.0
29-07-2023, 00:01:58,    196,    1.8,   13.8,   0.00,   0.00, 1003.7,    0.5, -999.0
29-07-2023, 00:02:08,    198,    0.9,   13.8,   0.00,   0.00, 1003.7,    0.4, -999.0
29-07-2023, 00:02:19,    200,    0.3,   13.7,   0.00,   0.00, 1003.7,    0.5, -999.0
29-07-2023, 00:02:28,    199,    0.4,   13.7,   0.00,   0.00, 1003.7,    0.2, -999.0
29-07-2023, 00:02:38,    201,    0.4,   13.8,   0.00,   0.00, 1003.7,    0.6, -999.0
29-07-2023, 00:02:48,    200,    1.1,   13.8,   0.00,   0.00, 1003.7,    0.2, -999.0
29-07-2023, 00:02:58,    200,    0.0,   13.7,   0.00,   0.00, 1003.6,    0.5, -999.0
29-07-2023, 00:03:08,    225,    0.6,   13.7,   0.00,   0.00, 1003.7,    0.4, -999.0
29-07-2023, 00:03:18,    224,    0.0,   13.7,   0.00,   0.00, 1003.6,    0.2, -999.0
29-07-2023, 00:03:28,    224,    0.0,   13.6,   0.00,   0.00, 1003.6,    0.5, -999.0
29-07-2023, 00:03:38,    224,    0.0,   13.7,   0.00,   0.00, 1003.6,    0.3, -999.0
29-07-2023, 00:03:48,    225,    0.2,   13.7,   0.00,   0.00, 1003.7,    0.6, -999.0
29-07-2023, 00:03:58,    206,    0.3,   13.7,   0.00,   0.00, 1003.7,    0.4, -999.0
29-07-2023, 00:04:08,    206,    0.2,   13.7,   0.00,   0.00, 1003.6,    0.4, -999.0
29-07-2023, 00:04:18,    230,    0.1,   13.7,   0.00,   0.00, 1003.6,    0.5, -999.0
29-07-2023, 00:04:28,    230,    0.1,   13.8,   0.00,   0.00, 1003.7,    0.3, -999.0
29-07-2023, 00:04:38,    197,    0.0,   13.7,   0.00,   0.00, 1003.6,    0.6, -999.0
29-07-2023, 00:04:48,    195,    0.5,   13.8,   0.00,   0.00, 1003.7,    0.8, -999.0
29-07-2023, 00:04:58,    196,    0.0,   13.7,   0.00,   0.00, 1003.6,    0.7, -999.0
29-07-2023, 00:05:08,    198,    0.1,   13.7,   0.00,   0.00, 1003.6,    0.1, -999.0
29-07-2023, 00:05:18,    201,    0.9,   13.8,   0.00,   0.00, 1003.7,    0.5, -999.0
29-07-2023, 00:05:28,    198,    0.8,   13.8,   0.00,   0.00, 1003.8,    0.4, -999.0
29-07-2023, 00:05:38,    198,    0.0,   13.6,   0.00,   0.00, 1003.6,    0.4, -999.0
29-07-2023, 00:05:48,    195,    0.0,   13.7,   0.00,   0.00, 1003.6,    0.2, -999.0
29-07-2023, 00:05:58,    195,    0.0,   13.7,   0.00,   0.00, 1003.6,    0.6, -999.0
29-07-2023, 00:06:08,    197,    0.3,   13.7,   0.00,   0.00, 1003.7,    0.4, -999.0
29-07-2023, 00:06:18,    181,    1.3,   13.8,   0.00,   0.00, 1003.7,    0.4, -999.0
29-07-2023, 00:06:28,    236,    1.2,   13.8,   0.00,   0.00, 1003.8,    0.4, -999.0
29-07-2023, 00:06:38,    204,    0.9,   13.7,   0.00,   0.00, 1003.8,    0.5, -999.0
29-07-2023, 00:06:48,    206,    0.3,   13.7,   0.00,   0.00, 1003.7,    0.4, -999.0
29-07-2023, 00:06:58,    208,    1.5,   13.8,   0.00,   0.00, 1003.8,    0.8, -999.0
29-07-2023, 00:07:08,    226,    1.9,   13.8,   0.00,   0.00, 1003.8,    0.4, -999.0
29-07-2023, 00:07:17,    226,    2.2,   13.8,   0.00,   0.00, 1003.8,    0.3, -999.0
29-07-2023, 00:07:28,    225,    0.4,   13.8,   0.00,   0.00, 1003.7,    0.5, -999.0
29-07-2023, 00:07:38,    225,    1.1,   13.7,   0.00,   0.00, 1003.8,    0.7, -999.0
29-07-2023, 00:07:48,    219,    0.8,   13.8,   0.00,   0.00, 1003.8,    0.3, -999.0
29-07-2023, 00:07:57,    217,    0.7,   13.8,   0.00,   0.00, 1003.8,    0.4, -999.0
29-07-2023, 00:08:08,    220,    1.6,   13.8,   0.00,   0.00, 1003.8,    0.5, -999.0
29-07-2023, 00:08:18,    218,    0.8,   13.8,   0.00,   0.00, 1003.8,    0.3, -999.0
29-07-2023, 00:08:27,    217,    0.2,   13.8,   0.00,   0.00, 1003.7,    0.4, -999.0
29-07-2023, 00:08:37,    204,    0.9,   13.7,   0.00,   0.00, 1003.8,    0.4, -999.0
29-07-2023, 00:08:48,    204,    0.8,   13.7,   0.00,   0.00, 1003.7,    0.4, -999.0
29-07-2023, 00:08:57,    198,    1.6,   13.8,   0.00,   0.00, 1003.8,    0.5, -999.0
29-07-2023, 00:09:07,    210,    0.3,   13.9,   0.00,   0.00, 1003.7,    0.4, -999.0
29-07-2023, 00:09:17,    211,    0.9,   13.8,   0.00,   0.00, 1003.8,    0.5, -999.0
29-07-2023, 00:09:28,    211,    0.2,   13.7,   0.00,   0.00, 1003.7,    0.3, -999.0
29-07-2023, 00:09:37,    211,    0.0,   13.7,   0.00,   0.00, 1003.6,    0.5, -999.0
29-07-2023, 00:09:47,    213,    0.0,   13.7,   0.00,   0.00, 1003.6,    0.5, -999.0
29-07-2023, 00:09:57,    211,    0.0,   13.8,   0.00,   0.00, 1003.6,    0.5, -999.0
29-07-2023, 00:10:07,    208,    0.6,   13.8,   0.00,   0.00, 1003.7,    0.4, -999.0
29-07-2023, 00:10:17,    208,    0.0,   13.7,   0.00,   0.00, 1003.6,    0.4, -999.0
29-07-2023, 00:10:27,    208,    0.0,   13.7,   0.00,   0.00, 1003.6,    0.6, -999.0
29-07-2023, 00:10:37,    208,    0.0,   13.7,   0.00,   0.00, 1003.6,    0.5, -999.0
29-07-2023, 00:10:47,    207,    0.0,   13.6,   0.00,   0.00, 1003.6,    0.3, -999.0
29-07-2023, 00:10:57,    204,    0.9,   13.7,   0.00,   0.00, 1003.7,    0.4, -999.0
29-07-2023, 00:11:07,    202,    1.1,   13.8,   0.00,   0.00, 1003.8,    0.6, -999.0
29-07-2023, 00:11:17,    202,    1.1,   13.8,   0.00,   0.00, 1003.7,    0.4, -999.0
29-07-2023, 00:11:27,    203,    0.6,   13.7,   0.00,   0.00, 1003.7,    0.4, -999.0
29-07-2023, 00:11:37,    202,    1.2,   13.7,   0.00,   0.00, 1003.7,    1.1, -999.0
29-07-2023, 00:11:47,    188,    0.6,   13.8,   0.00,   0.00, 1003.7,    0.9, -999.0
29-07-2023, 00:11:57,    187,    0.0,   13.7,   0.00,   0.00, 1003.6,    0.4, -999.0
29-07-2023, 00:12:07,    210,    1.5,   13.8,   0.00,   0.00, 1003.7,    0.4, -999.0
29-07-2023, 00:12:17,    209,    0.3,   13.7,   0.00,   0.00, 1003.7,    0.2, -999.0
29-07-2023, 00:12:27,    209,    0.1,   13.7,   0.00,   0.00, 1003.6,    0.2, -999.0
29-07-2023, 00:12:37,    202,    1.4,   13.7,   0.00,   0.00, 1003.7,    0.5, -999.0
29-07-2023, 00:12:47,    223,    0.8,   13.8,   0.00,   0.00, 1003.7,    0.1, -999.0
29-07-2023, 00:12:57,    222,    0.0,   13.6,   0.00,   0.00, 1003.6,    0.4, -999.0
29-07-2023, 00:13:07,    218,    0.2,   13.7,   0.00,   0.00, 1003.6,    0.3, -999.0
29-07-2023, 00:13:17,    219,    0.0,   13.7,   0.00,   0.00, 1003.6,    0.3, -999.0
29-07-2023, 00:13:27,    217,    0.5,   13.8,   0.00,   0.00, 1003.6,    0.4, -999.0
29-07-2023, 00:13:37,    216,    1.0,   13.8,   0.00,   0.00, 1003.7,    0.1, -999.0
29-07-2023, 00:13:47,    216,    0.0,   13.7,   0.00,   0.00, 1003.6,    0.5, -999.0
29-07-2023, 00:13:57,    216,    0.1,   13.7,   0.00,   0.00, 1003.6,    0.5, -999.0
29-07-2023, 00:14:07,    216,    0.1,   13.7,   0.00,   0.00, 1003.6,    0.3, -999.0
29-07-2023, 00:14:17,    216,    0.2,   13.7,   0.00,   0.00, 1003.7,    0.1, -999.0
29-07-2023, 00:14:27,    216,    0.0,   13.6,   0.00,   0.00, 1003.6,    0.3, -999.0
29-07-2023, 00:14:37,    199,    1.0,   13.7,   0.00,   0.00, 1003.7,    0.3, -999.0
29-07-2023, 00:14:47,    199,    0.2,   13.7,   0.00,   0.00, 1003.7,    0.7, -999.0
29-07-2023, 00:14:57,    198,    0.4,   13.7,   0.00,   0.00, 1003.6,    0.5, -999.0
29-07-2023, 00:15:06,    198,    0.0,   13.7,   0.00,   0.00, 1003.6,    0.4, -999.0
29-07-2023, 00:15:17,    198,    0.0,   13.6,   0.00,   0.00, 1003.6,    0.4, -999.0
29-07-2023, 00:15:27,    198,    0.0,   13.8,   0.00,   0.00, 1003.6,    0.3, -999.0
29-07-2023, 00:15:36,    198,    0.0,   13.7,   0.00,   0.00, 1003.6,    0.3, -999.0
29-07-2023, 00:15:46,    198,    0.0,   13.6,   0.00,   0.00, 1003.6,    0.4, -999.0
29-07-2023, 00:15:57,    197,    0.0,   13.7,   0.00,   0.00, 1003.6,    0.5, -999.0
29-07-2023, 00:16:06,    197,    0.0,   13.7,   0.00,   0.00, 1003.6,    0.2, -999.0
29-07-2023, 00:16:16,    197,    0.0,   13.6,   0.00,   0.00, 1003.6,    0.3, -999.0
29-07-2023, 00:16:27,    197,    0.0,   13.6,   0.00,   0.00, 1003.5,    0.3, -999.0
29-07-2023, 00:16:37,    197,    0.0,   13.7,   0.00,   0.00, 1003.5,    0.5, -999.0
29-07-2023, 00:16:46,    197,    0.0,   13.7,   0.00,   0.00, 1003.5,    0.4, -999.0
29-07-2023, 00:16:56,    197,    0.0,   13.7,   0.00,   0.00, 1003.5,    0.3, -999.0
29-07-2023, 00:17:07,    195,    0.0,   13.7,   0.00,   0.00, 1003.5,    0.3, -999.0
29-07-2023, 00:17:16,    197,    0.1,   13.7,   0.00,   0.00, 1003.6,    0.5, -999.0
29-07-2023, 00:17:26,    199,    0.0,   13.7,   0.00,   0.00, 1003.5,    0.3, -999.0
29-07-2023, 00:17:36,    185,    0.4,   13.5,   0.00,   0.00, 1003.6,    0.4, -999.0
29-07-2023, 00:17:46,    185,    0.0,   13.6,   0.00,   0.00, 1003.6,    0.2, -999.0
29-07-2023, 00:17:56,    185,    0.0,   13.7,   0.00,   0.00, 1003.5,    0.2, -999.0
29-07-2023, 00:18:06,    186,    0.0,   13.7,   0.00,   0.00, 1003.5,    0.4, -999.0
29-07-2023, 00:18:16,    185,    0.0,   13.7,   0.00,   0.00, 1003.5,    0.5, -999.0
29-07-2023, 00:18:26,    185,    0.0,   13.7,   0.00,   0.00, 1003.6,    0.5, -999.0
29-07-2023, 00:18:36,    185,    0.0,   13.7,   0.00,   0.00, 1003.6,    0.5, -999.0
29-07-2023, 00:18:46,    186,    0.0,   13.7,   0.00,   0.00, 1003.6,    0.4, -999.0
29-07-2023, 00:18:56,    187,    0.3,   13.7,   0.00,   0.00, 1003.7,    0.5, -999.0
29-07-2023, 00:19:06,    186,    0.1,   13.8,   0.00,   0.00, 1003.6,    0.4, -999.0
29-07-2023, 00:19:16,    187,    0.3,   13.7,   0.00,   0.00, 1003.7,    0.6, -999.0
29-07-2023, 00:19:26,    186,    0.0,   13.7,   0.00,   0.00, 1003.6,    0.3, -999.0
29-07-2023, 00:19:36,    186,    0.0,   13.6,   0.00,   0.00, 1003.6,    0.4, -999.0
29-07-2023, 00:19:46,    187,    0.0,   13.7,   0.00,   0.00, 1003.6,    0.2, -999.0
29-07-2023, 00:19:56,    186,    0.0,   13.7,   0.00,   0.00, 1003.5,    0.7, -999.0
29-07-2023, 00:20:06,    186,    0.0,   13.7,   0.00,   0.00, 1003.6,    0.4, -999.0
29-07-2023, 00:20:16,    186,    0.0,   13.7,   0.00,   0.00, 1003.6,    0.2, -999.0
29-07-2023, 00:20:26,    188,    0.7,   13.7,   0.00,   0.00, 1003.7,    0.4, -999.0
29-07-2023, 00:20:36,    189,    0.0,   13.7,   0.00,   0.00, 1003.6,    0.5, -999.0
29-07-2023, 00:20:46,    191,    0.2,   13.7,   0.00,   0.00, 1003.7,    0.4, -999.0
29-07-2023, 00:20:56,    193,    1.1,   13.8,   0.00,   0.00, 1003.7,    0.4, -999.0
29-07-2023, 00:21:06,    194,    0.2,   13.7,   0.00,   0.00, 1003.7,    0.3, -999.0
29-07-2023, 00:21:16,    194,    0.0,   13.7,   0.00,   0.00, 1003.6,    0.5, -999.0
29-07-2023, 00:21:26,    194,    0.0,   13.6,   0.00,   0.00, 1003.6,    0.2, -999.0
29-07-2023, 00:21:36,    194,    0.0,   13.7,   0.00,   0.00, 1003.6,    0.2, -999.0
29-07-2023, 00:21:46,    270,    0.2,   13.7,   0.00,   0.00, 1003.7,    0.4, -999.0
29-07-2023, 00:21:56,    261,    0.2,   13.7,   0.00,   0.00, 1003.7,    0.4, -999.0
29-07-2023, 00:22:06,    260,    0.0,   13.7,   0.00,   0.00, 1003.6,    0.5, -999.0
29-07-2023, 00:22:16,    222,    1.0,   13.8,   0.00,   0.00, 1003.7,    0.3, -999.0
29-07-2023, 00:22:26,    221,    0.9,   13.8,   0.00,   0.00, 1003.8,    0.7, -999.0
29-07-2023, 00:22:36,    220,    0.0,   13.6,   0.00,   0.00, 1003.6,    0.4, -999.0
29-07-2023, 00:22:45,    221,    0.0,   13.5,   0.00,   0.00, 1003.6,    0.3, -999.0
29-07-2023, 00:22:56,    221,    0.0,   13.7,   0.00,   0.00, 1003.6,    0.6, -999.0
29-07-2023, 00:23:06,    171,    0.6,   13.7,   0.00,   0.00, 1003.7,    0.5, -999.0
29-07-2023, 00:23:15,    196,    1.1,   13.8,   0.00,   0.00, 1003.7,    0.2, -999.0
29-07-2023, 00:23:25,    198,    1.5,   13.8,   0.00,   0.00, 1003.7,    0.5, -999.0
29-07-2023, 00:23:36,    188,    1.1,   13.8,   0.00,   0.00, 1003.7,    0.4, -999.0
29-07-2023, 00:23:46,    188,    0.0,   13.7,   0.00,   0.00, 1003.6,    0.4, -999.0
29-07-2023, 00:23:55,    188,    0.2,   13.8,   0.00,   0.00, 1003.7,    0.5, -999.0
29-07-2023, 00:24:06,    188,    0.0,   13.6,   0.00,   0.00, 1003.6,    0.4, -999.0
29-07-2023, 00:24:16,    187,    0.0,   13.6,   0.00,   0.00, 1003.6,    0.3, -999.0
29-07-2023, 00:24:25,    188,    0.0,   13.7,   0.00,   0.00, 1003.6,    0.3, -999.0
29-07-2023, 00:24:35,    190,    0.3,   13.8,   0.00,   0.00, 1003.7,    0.3, -999.0
29-07-2023, 00:24:46,    190,    0.0,   13.7,   0.00,   0.00, 1003.6,    0.2, -999.0
29-07-2023, 00:24:55,    191,    0.7,   13.7,   0.00,   0.00, 1003.7,    0.5, -999.0
29-07-2023, 00:25:05,    193,    0.4,   13.7,   0.00,   0.00, 1003.7,    0.4, -999.0
29-07-2023, 00:25:15,    193,    0.4,   13.7,   0.00,   0.00, 1003.7,    0.6, -999.0
29-07-2023, 00:25:25,    194,    0.0,   13.7,   0.00,   0.00, 1003.6,    0.3, -999.0
29-07-2023, 00:25:35,    194,    0.0,   13.7,   0.00,   0.00, 1003.6,    0.4, -999.0
29-07-2023, 00:25:45,    194,    0.0,   13.7,   0.00,   0.00, 1003.6,    0.4, -999.0
29-07-2023, 00:25:55,    197,    0.4,   13.6,   0.00,   0.00, 1003.7,    0.4, -999.0
29-07-2023, 00:26:05,    197,    0.2,   13.7,   0.00,   0.00, 1003.6,    0.6, -999.0
29-07-2023, 00:26:15,    196,    0.0,   13.7,   0.00,   0.00, 1003.6,    0.5, -999.0
29-07-2023, 00:26:25,    196,    0.0,   13.7,   0.00,   0.00, 1003.6,    0.3, -999.0
29-07-2023, 00:26:35,    196,    0.0,   13.6,   0.00,   0.00, 1003.6,    0.5, -999.0
29-07-2023, 00:26:45,    196,    0.0,   13.6,   0.00,   0.00, 1003.6,    0.5, -999.0
29-07-2023, 00:26:55,    198,    0.1,   13.7,   0.00,   0.00, 1003.6,    0.4, -999.0
29-07-2023, 00:27:06,    199,    0.3,   13.8,   0.00,   0.00, 1003.7,    0.4, -999.0
29-07-2023, 00:27:15,    205,    0.4,   13.7,   0.00,   0.00, 1003.7,    0.2, -999.0
29-07-2023, 00:27:25,    203,    0.9,   13.8,   0.00,   0.00, 1003.7,    0.4, -999.0
29-07-2023, 00:27:35,    203,    1.0,   13.8,   0.00,   0.00, 1003.7,    0.4, -999.0
29-07-2023, 00:27:45,    210,    1.0,   13.7,   0.00,   0.00, 1003.8,    0.5, -999.0
29-07-2023, 00:27:55,    210,    0.0,   13.7,   0.00,   0.00, 1003.6,    0.4, -999.0
29-07-2023, 00:28:05,    210,    0.0,   13.7,   0.00,   0.00, 1003.6,    0.2, -999.0
29-07-2023, 00:28:15,    210,    0.0,   13.7,   0.00,   0.00, 1003.6,    0.3, -999.0
29-07-2023, 00:28:25,    210,    0.0,   13.6,   0.00,   0.00, 1003.6,    0.3, -999.0
29-07-2023, 00:28:35,    210,    0.0,   13.7,   0.00,   0.00, 1003.6,    0.3, -999.0
29-07-2023, 00:28:45,    209,    0.0,   13.6,   0.00,   0.00, 1003.6,    0.3, -999.0
29-07-2023, 00:28:55,    209,    0.1,   13.7,   0.00,   0.00, 1003.7,    0.4, -999.0
29-07-2023, 00:29:05,    208,    0.0,   13.6,   0.00,   0.00, 1003.6,    0.3, -999.0
29-07-2023, 00:29:15,    208,    0.2,   13.7,   0.00,   0.00, 1003.7,    0.3, -999.0
29-07-2023, 00:29:25,    205,    1.0,   13.7,   0.00,   0.00, 1003.7,    0.5, -999.0
29-07-2023, 00:29:35,    204,    0.2,   13.7,   0.00,   0.00, 1003.7,    0.5, -999.0
29-07-2023, 00:29:45,    202,    0.4,   13.7,   0.00,   0.00, 1003.7,    0.4, -999.0
29-07-2023, 00:29:55,    202,    0.0,   13.7,   0.00,   0.00, 1003.6,    0.4, -999.0
29-07-2023, 00:30:05,    202,    0.0,   13.7,   0.00,   0.00, 1003.5,    0.5, -999.0
29-07-2023, 00:30:15,    202,    0.0,   13.6,   0.00,   0.00, 1003.6,    0.4, -999.0
29-07-2023, 00:30:24,    205,    0.0,   13.6,   0.00,   0.00, 1003.6,    0.5, -999.0
29-07-2023, 00:30:35,    205,    0.2,   13.6,   0.00,   0.00, 1003.6,    0.3, -999.0
29-07-2023, 00:30:45,    204,    0.1,   13.7,   0.00,   0.00, 1003.7,    0.3, -999.0
29-07-2023, 00:30:55,    204,    0.0,   13.6,   0.00,   0.00, 1003.6,    0.3, -999.0
29-07-2023, 00:31:04,    205,    0.0,   13.7,   0.00,   0.00, 1003.6,    0.4, -999.0
29-07-2023, 00:31:15,    205,    0.0,   13.7,   0.00,   0.00, 1003.6,    0.5, -999.0
29-07-2023, 00:31:25,    204,    0.0,   13.6,   0.00,   0.00, 1003.6,    0.3, -999.0
29-07-2023, 00:31:34,    205,    0.0,   13.6,   0.00,   0.00, 1003.6,    0.3, -999.0
29-07-2023, 00:31:44,    204,    0.0,   13.6,   0.00,   0.00, 1003.6,    0.5, -999.0
29-07-2023, 00:31:55,    205,    0.0,   13.6,   0.00,   0.00, 1003.6,    0.3, -999.0
29-07-2023, 00:32:04,    199,    0.0,   13.7,   0.00,   0.00, 1003.6,    0.4, -999.0
29-07-2023, 00:32:14,    199,    0.0,   13.7,   0.00,   0.00, 1003.6,    0.3, -999.0
29-07-2023, 00:32:24,    199,    0.1,   13.6,   0.00,   0.00, 1003.6,    0.3, -999.0
29-07-2023, 00:32:34,    199,    0.2,   13.6,   0.00,   0.00, 1003.7,    0.5, -999.0
29-07-2023, 00:32:44,    199,    0.4,   13.6,   0.00,   0.00, 1003.7,    0.5, -999.0
29-07-2023, 00:32:54,    201,    0.0,   13.7,   0.00,   0.00, 1003.6,    0.4, -999.0
29-07-2023, 00:33:05,    210,    1.0,   13.6,   0.00,   0.00, 1003.7,    0.4, -999.0
29-07-2023, 00:33:14,    220,    0.6,   13.7,   0.00,   0.00, 1003.7,    0.2, -999.0
29-07-2023, 00:33:24,    213,    0.7,   13.7,   0.00,   0.00, 1003.7,    0.6, -999.0
29-07-2023, 00:33:34,    204,    0.6,   13.7,   0.00,   0.00, 1003.7,    0.3, -999.0
29-07-2023, 00:33:44,    204,    0.0,   13.6,   0.00,   0.00, 1003.6,    0.3, -999.0
29-07-2023, 00:33:54,    204,    0.0,   13.5,   0.00,   0.00, 1003.6,    0.3, -999.0
29-07-2023, 00:34:04,    203,    0.0,   13.6,   0.00,   0.00, 1003.6,    0.5, -999.0
29-07-2023, 00:34:14,    204,    0.0,   13.6,   0.00,   0.00, 1003.6,    0.4, -999.0
29-07-2023, 00:34:24,    204,    0.0,   13.6,   0.00,   0.00, 1003.6,    0.4, -999.0
29-07-2023, 00:34:34,    204,    0.0,   13.5,   0.00,   0.00, 1003.6,    0.3, -999.0
29-07-2023, 00:34:44,    204,    0.0,   13.5,   0.00,   0.00, 1003.6,    0.3, -999.0
29-07-2023, 00:34:54,    203,    0.2,   13.6,   0.00,   0.00, 1003.6,    0.4, -999.0
29-07-2023, 00:35:04,    203,    0.0,   13.6,   0.00,   0.00, 1003.6,    0.2, -999.0
29-07-2023, 00:35:14,    208,    0.1,   13.7,   0.00,   0.00, 1003.7,    0.4, -999.0
29-07-2023, 00:35:24,    208,    0.5,   13.7,   0.00,   0.00, 1003.7,    0.3, -999.0
29-07-2023, 00:35:34,    206,    0.0,   13.6,   0.00,   0.00, 1003.6,    0.5, -999.0
29-07-2023, 00:35:44,    207,    0.0,   13.6,   0.00,   0.00, 1003.6,    0.3, -999.0
29-07-2023, 00:35:54,    203,    0.7,   13.7,   0.00,   0.00, 1003.7,    0.3, -999.0
29-07-2023, 00:36:04,    203,    0.5,   13.6,   0.00,   0.00, 1003.7,    0.7, -999.0
29-07-2023, 00:36:14,    203,    0.0,   13.6,   0.00,   0.00, 1003.6,    0.6, -999.0
29-07-2023, 00:36:24,    203,    0.0,   13.6,   0.00,   0.00, 1003.6,    0.3, -999.0
29-07-2023, 00:36:34,    203,    0.0,   13.5,   0.00,   0.00, 1003.6,    0.4, -999.0
29-07-2023, 00:36:44,    202,    0.0,   13.6,   0.00,   0.00, 1003.6,    0.4, -999.0
29-07-2023, 00:36:54,    203,    0.0,   13.6,   0.00,   0.00, 1003.5,    0.2, -999.0
29-07-2023, 00:37:04,    203,    0.0,   13.6,   0.00,   0.00, 1003.6,    0.4, -999.0
29-07-2023, 00:37:14,    203,    0.0,   13.7,   0.00,   0.00, 1003.6,    0.3, -999.0
29-07-2023, 00:37:24,    203,    0.0,   13.6,   0.00,   0.00, 1003.6,    0.5, -999.0
29-07-2023, 00:37:34,    203,    0.0,   13.6,   0.00,   0.00, 1003.6,    0.5, -999.0
29-07-2023, 00:37:44,    203,    0.0,   13.6,   0.00,   0.00, 1003.6,    0.6, -999.0
29-07-2023, 00:37:54,    203,    0.0,   13.6,   0.00,   0.00, 1003.6,    0.3, -999.0
29-07-2023, 00:38:03,    203,    0.0,   13.5,   0.00,   0.00, 1003.6,    0.4, -999.0
29-07-2023, 00:38:14,    203,    0.0,   13.6,   0.00,   0.00, 1003.6,    0.2, -999.0
29-07-2023, 00:38:24,    203,    0.0,   13.6,   0.00,   0.00, 1003.6,    0.2, -999.0
29-07-2023, 00:38:34,    203,    0.0,   13.6,   0.00,   0.00, 1003.5,    0.3, -999.0
29-07-2023, 00:38:43,    203,    0.0,   13.6,   0.00,   0.00, 1003.6,    0.4, -999.0
29-07-2023, 00:38:54,    203,    0.0,   13.6,   0.00,   0.00, 1003.5,    0.3, -999.0
29-07-2023, 00:39:04,    204,    0.0,   13.6,   0.00,   0.00, 1003.5,    0.2, -999.0
29-07-2023, 00:39:13,    212,    0.0,   13.6,   0.00,   0.00, 1003.6,    0.4, -999.0
29-07-2023, 00:39:23,    213,    0.0,   13.6,   0.00,   0.00, 1003.5,    0.5, -999.0
29-07-2023, 00:39:34,    213,    0.0,   13.7,   0.00,   0.00, 1003.6,    0.2, -999.0
29-07-2023, 00:39:43,    212,    0.0,   13.7,   0.00,   0.00, 1003.5,    0.2, -999.0
29-07-2023, 00:39:53,    212,    0.0,   13.6,   0.00,   0.00, 1003.6,    0.4, -999.0
29-07-2023, 00:40:03,    211,    0.0,   13.6,   0.00,   0.00, 1003.6,    0.3, -999.0
29-07-2023, 00:40:14,    211,    0.0,   13.6,   0.00,   0.00, 1003.6,    0.6, -999.0
29-07-2023, 00:40:23,    212,    0.0,   13.6,   0.00,   0.00, 1003.6,    0.6, -999.0
29-07-2023, 00:40:33,    212,    0.0,   13.5,   0.00,   0.00, 1003.6,    0.3, -999.0
29-07-2023, 00:40:43,    211,    0.0,   13.6,   0.00,   0.00, 1003.6,    0.2, -999.0
29-07-2023, 00:40:53,    210,    0.1,   13.6,   0.00,   0.00, 1003.6,    0.5, -999.0
29-07-2023, 00:41:03,    217,    1.0,   13.6,   0.00,   0.00, 1003.7,    0.3, -999.0
29-07-2023, 00:41:13,    217,    0.4,   13.7,   0.00,   0.00, 1003.7,    0.3, -999.0
29-07-2023, 00:41:23,    217,    0.0,   13.6,   0.00,   0.00, 1003.6,    0.5, -999.0
29-07-2023, 00:41:33,    215,    0.0,   13.6,   0.00,   0.00, 1003.6,    0.2, -999.0
29-07-2023, 00:41:43,    214,    0.1,   13.6,   0.00,   0.00, 1003.6,    0.3, -999.0
29-07-2023, 00:41:53,    214,    0.0,   13.6,   0.00,   0.00, 1003.6,    0.3, -999.0
29-07-2023, 00:42:03,    213,    0.3,   13.4,   0.00,   0.00, 1003.6,    0.7, -999.0
29-07-2023, 00:42:13,    213,    0.7,   13.6,   0.00,   0.00, 1003.7,    0.4, -999.0
29-07-2023, 00:42:23,    229,    1.1,   13.7,   0.00,   0.00, 1003.7,    0.6, -999.0
29-07-2023, 00:42:33,    226,    0.0,   13.7,   0.00,   0.00, 1003.6,    0.5, -999.0
29-07-2023, 00:42:43,    229,    0.0,   13.6,   0.00,   0.00, 1003.6,    0.3, -999.0
29-07-2023, 00:42:53,    226,    0.7,   13.7,   0.00,   0.00, 1003.7,    0.4, -999.0
29-07-2023, 00:43:03,    226,    0.0,   13.5,   0.00,   0.00, 1003.6,    0.3, -999.0
29-07-2023, 00:43:13,    225,    0.0,   13.6,   0.00,   0.00, 1003.6,    0.4, -999.0
29-07-2023, 00:43:23,    225,    0.0,   13.6,   0.00,   0.00, 1003.5,    0.4, -999.0
29-07-2023, 00:43:33,    226,    0.0,   13.6,   0.00,   0.00, 1003.6,    0.5, -999.0
29-07-2023, 00:43:43,    226,    0.0,   13.7,   0.00,   0.00, 1003.5,    0.3, -999.0
29-07-2023, 00:43:53,    217,    0.2,   13.6,   0.00,   0.00, 1003.6,    0.4, -999.0
29-07-2023, 00:44:03,    217,    0.0,   13.6,   0.00,   0.00, 1003.6,    0.3, -999.0
29-07-2023, 00:44:13,    217,    0.3,   13.6,   0.00,   0.00, 1003.6,    0.4, -999.0
29-07-2023, 00:44:23,    216,    0.7,   13.8,   0.00,   0.00, 1003.7,    0.5, -999.0
29-07-2023, 00:44:33,    217,    0.3,   13.7,   0.00,   0.00, 1003.7,    0.5, -999.0
29-07-2023, 00:44:43,    216,    0.1,   13.7,   0.00,   0.00, 1003.7,    0.3, -999.0
29-07-2023, 00:44:53,    216,    0.0,   13.5,   0.00,   0.00, 1003.6,    0.3, -999.0
29-07-2023, 00:45:03,    216,    0.0,   13.6,   0.00,   0.00, 1003.6,    0.4, -999.0
29-07-2023, 00:45:13,    216,    0.0,   13.6,   0.00,   0.00, 1003.6,    0.2, -999.0
29-07-2023, 00:45:23,    216,    0.1,   13.6,   0.00,   0.00, 1003.6,    0.5, -999.0
29-07-2023, 00:45:33,    216,    0.4,   13.7,   0.00,   0.00, 1003.7,    0.3, -999.0
29-07-2023, 00:45:43,    219,    0.8,   13.7,   0.00,   0.00, 1003.7,    0.6, -999.0
29-07-2023, 00:45:52,    219,    0.3,   13.6,   0.00,   0.00, 1003.7,    0.8, -999.0
29-07-2023, 00:46:03,    216,    0.1,   13.6,   0.00,   0.00, 1003.7,    0.4, -999.0
29-07-2023, 00:46:13,    215,    0.6,   13.6,   0.00,   0.00, 1003.7,    0.4, -999.0
29-07-2023, 00:46:22,    216,    0.3,   13.6,   0.00,   0.00, 1003.6,    0.7, -999.0
29-07-2023, 00:46:32,    217,    1.0,   13.7,   0.00,   0.00, 1003.7,    0.6, -999.0
29-07-2023, 00:46:43,    217,    0.0,   13.7,   0.00,   0.00, 1003.6,    0.4, -999.0
29-07-2023, 00:46:53,    217,    0.0,   13.6,   0.00,   0.00, 1003.6,    0.4, -999.0